DW5775 Weather Reports


Display with metric or nautical units.
time (UTC)temp
F
wind
direction
speed
MPH
gust
MPH
rain 1hr
in
rain 24hr
in
rain mn
in
humidity
%
barometer
mb
20260903121548 70 150 0.0 0.0 0.00 2.00 0.44 97 1012.5
20260903120051 69 150 0.0 0.0 0.00 2.00 0.44 97 1012.4
20260903114549 69 150 0.0 0.0 0.00 2.00 0.44 97 1012.3
20260903113047 69 149 0.0 0.0 0.00 2.00 0.44 97 1012.3
20260903111552 68 149 0.0 0.0 0.00 2.00 0.44 97 1012.2
20260903110046 68 150 0.0 0.0 0.00 2.00 0.44 97 1012.1
20260903104606 68 150 0.0 0.0 0.00 2.00 0.44 97 1011.9
20260903103056 68 150 0.0 0.0 0.00 2.00 0.44 97 1011.9
20260903101549 68 149 0.0 0.0 0.00 2.00 0.44 96 1011.9
20260903100043 68 149 0.0 0.0 0.00 2.00 0.44 96 1011.9
20260903094546 68 149 0.0 0.0 0.00 2.00 0.44 96 1011.8
20260903093048 68 149 0.0 0.0 0.00 2.00 0.44 96 1011.7
20260903091544 68 149 0.0 0.0 0.00 2.00 0.44 96 1011.6
20260903090040 67 150 0.0 0.0 0.00 2.00 0.44 96 1011.5
20260903084545 68 150 0.0 0.0 0.00 2.00 0.44 96 1011.3
20260903083037 68 150 0.0 0.0 0.00 2.00 0.44 96 1011.2
20260903081536 68 150 0.0 0.0 0.39 2.00 0.44 96 1011.2
20260903080034 68 150 0.0 2.0 0.39 2.00 0.44 96 1011.2
20260903074533 68 23 0.0 1.0 0.39 2.00 0.44 96 1010.9
20260903073036 69 37 0.0 12.0 0.39 2.00 0.44 96 1011.2
20260903071532 70 186 0.0 1.0 0.05 1.62 0.05 96 1011.0
20260903070029 70 105 0.0 1.0 0.05 1.62 0.05 96 1011.2
20260903064526 70 8 0.0 0.0 0.05 1.62 0.05 96 1011.3
20260903063026 70 8 0.0 4.0 0.05 1.62 0.05 96 1011.2
20260903061528 71 321 0.0 1.0 0.00 1.57 0.00 96 1010.6
20260903060022 70 139 0.0 0.0 0.00 1.57 0.00 96 1011.3
20260903054522 70 140 0.0 0.0 0.00 1.57 0.00 96 1011.3
20260903053022 70 139 0.0 0.0 0.00 1.57 0.00 96 1011.2
20260903051519 70 140 0.0 0.0 0.00 1.57 0.00 96 1011.1
20260903050036 70 140 0.0 0.0 0.00 1.57 0.00 96 1011.1
20260903044517 70 139 0.0 0.0 0.08 1.57 0.00 96 1011.2
20260903043016 70 139 0.0 0.0 0.19 1.57 0.00 96 1011.0
20260903041519 70 139 0.0 1.0 0.37 1.57 0.00 95 1011.3
20260903040011 69 119 0.0 2.0 1.02 1.57 0.00 95 1010.9
20260903034510 68 98 0.0 4.0 1.35 1.48 1.48 95 1011.5
20260903033010 68 158 0.0 3.0 1.37 1.38 1.38 94 1011.4
20260903031507 69 124 0.0 17.0 1.19 1.19 1.19 93 1012.2
20260903030003 73 295 1.0 8.0 0.51 0.51 0.51 87 1012.0
20260903024502 79 286 0.0 3.0 0.12 0.12 0.12 88 1009.9
20260903023108 82 31 0.0 1.0 0.01 0.01 0.01 83 1009.0
20260903021559 83 69 0.0 0.0 0.00 0.00 0.00 77 1009.4
20260903020106 83 69 0.0 0.0 0.00 0.00 0.00 75 1010.3
20260903014557 82 69 0.0 0.0 0.00 0.00 0.00 76 1010.2
20260903013058 83 69 0.0 1.0 0.00 0.00 0.00 75 1010.1
20260903011558 83 69 0.0 0.0 0.00 0.00 0.00 74 1010.1
20260903010058 84 69 0.0 0.0 0.00 0.00 0.00 72 1010.0
20260903004555 84 69 0.0 0.0 0.00 0.00 0.00 70 1009.8
20260903003055 85 70 0.0 0.0 0.00 0.00 0.00 68 1009.8
20260903001607 86 69 0.0 0.0 0.00 0.00 0.00 66 1009.6
20260903000059 87 113 0.0 2.0 0.00 0.00 0.00 64 1009.5
20260902234553 88 141 0.0 2.0 0.00 0.00 0.00 63 1009.7
20260902233057 88 100 0.0 3.0 0.00 0.00 0.00 61 1009.7
20260902231555 89 51 0.0 5.0 0.00 0.00 0.00 59 1009.7
20260902230052 89 8 0.0 3.0 0.00 0.00 0.00 59 1009.7
20260902224552 89 62 1.0 5.0 0.00 0.00 0.00 58 1009.5
20260902223051 90 16 0.0 8.0 0.00 0.00 0.00 57 1009.4
20260902221609 90 91 0.0 4.0 0.00 0.00 0.00 57 1009.4
20260902220059 91 131 1.0 5.0 0.00 0.00 0.00 54 1009.1
20260902214548 91 13 0.0 8.0 0.00 0.00 0.00 55 1009.2
20260902213052 91 238 1.0 8.0 0.00 0.00 0.00 57 1009.6
20260902211553 92 48 0.0 4.0 0.00 0.00 0.00 55 1009.6
20260902210045 92 51 1.0 4.0 0.00 0.00 0.00 54 1009.4
20260902204603 93 117 0.0 3.0 0.00 0.00 0.00 52 1009.7
20260902203043 94 61 1.0 6.0 0.00 0.00 0.00 48 1009.7
20260902201543 94 346 2.0 7.0 0.00 0.00 0.00 50 1010.0
20260902200040 94 120 2.0 8.0 0.00 0.00 0.00 49 1010.0
20260902194552 96 307 0.0 5.0 0.00 0.00 0.00 51 1010.2
20260902193040 95 229 0.0 2.0 0.00 0.00 0.00 47 1010.5
20260902191539 95 335 1.0 7.0 0.00 0.00 0.00 47 1010.5
20260902190030 95 35 0.0 6.0 0.00 0.00 0.00 50 1010.7
20260902184528 94 77 1.0 7.0 0.00 0.00 0.00 50 1010.6
20260902183030 94 104 1.0 7.0 0.00 0.00 0.00 49 1010.7
20260902181523 94 77 0.0 4.0 0.00 0.00 0.00 52 1010.9
20260902180021 92 281 0.0 5.0 0.00 0.00 0.00 57 1011.3
20260902174519 93 5 0.0 6.0 0.00 0.00 0.00 55 1011.5
20260902173015 92 70 0.0 3.0 0.00 0.00 0.00 56 1011.7
20260902171512 91 149 0.0 4.0 0.00 0.00 0.00 60 1012.0
20260902170009 90 21 0.0 4.0 0.00 0.00 0.00 60 1012.3
20260902164506 90 74 0.0 1.0 0.00 0.00 0.00 65 1012.1
20260902163003 90 108 0.0 2.0 0.00 0.00 0.00 62 1012.1
20260902161502 89 98 2.0 4.0 0.00 0.00 0.00 61 1012.2
20260902160110 89 161 1.0 3.0 0.00 0.00 0.00 62 1012.3
20260902154559 88 16 0.0 3.0 0.00 0.00 0.00 64 1012.2
20260902153053 87 72 0.0 3.0 0.00 0.00 0.00 68 1012.3
20260902151550 86 135 0.0 3.0 0.00 0.00 0.00 70 1012.3
20260902150046 85 197 0.0 3.0 0.00 0.00 0.00 73 1012.3
20260902144544 84 15 0.0 1.0 0.00 0.00 0.00 76 1012.3
20260902143043 84 325 0.0 4.0 0.00 0.00 0.00 76 1012.3
20260902141540 84 63 0.0 2.0 0.00 0.00 0.00 78 1012.2
20260902140039 83 72 0.0 1.0 0.00 0.00 0.00 81 1012.1
20260902134534 82 17 0.0 4.0 0.00 0.00 0.00 85 1012.2
20260902133029 81 39 0.0 1.0 0.00 0.00 0.00 86 1012.5
20260902131525 80 36 0.0 1.0 0.00 0.00 0.00 89 1012.4
20260902130030 79 146 0.0 2.0 0.00 0.00 0.00 92 1012.4
20260902124518 77 212 0.0 0.0 0.00 0.00 0.00 96 1012.3
20260902123026 75 212 0.0 0.0 0.00 0.00 0.00 96 1012.3